Flag for Spain Weather past 2 weeks in Oviedo, Spain

52 °F

Rain. Partly cloudy.

Feels Like: 48 °F
Forecast: 40 / 53 °F
Wind: 12 mph from North

Location: Asturias / Aviles

Current Time: Nov 28, 2015 at 12:46:48 AM

Latest Report: Nov 27, 2015 at 11:45 PM

Visibility: 1 mi

Pressure: 30.21 "Hg

Humidity: 100%

Dew point: 52 °F

Location of OviedoLocation

Historic Weather in Oviedo — Graph


Oviedo temperature yesterday

Maximum temperature yesterday: 57 °F (at 12:00 PM)
Minimum temperature yesterday: 54 °F (at 8:30 PM)
Average temperature yesterday: 55 °F

Past Weeks' High & Low Weather Summary

High70 °F (Nov 18, 1:30 PM)100% (Nov 13, 11:00 AM)30.57 "Hg (Nov 13, 11:00 AM)
Low41 °F (Nov 23, 6:00 AM)38% (Nov 20, 1:30 PM)29.95 "Hg (Nov 22, 2:30 PM)
Average56 °F84%30.30 "Hg
* Reported Nov 12 11:00 PM — Nov 27 11:30 PM, Oviedo, Weather by CustomWeather, © 2015

Note: Actual official high and low records may vary slightly from our data, if they occured in-between our weather recording intervals... More about our weather records


Oviedo weather history for previous 24 hours

Time TempWeatherWind HumidityBarometerVisibility
11:30 PM
Fri, Nov 27
54 °FLots of rain. Passing clouds.14 mph94%30.21 "Hg1 mi
11:00 PM54 °FPassing clouds.6 mph94%30.18 "HgN/A
10:30 PM54 °FPassing clouds.7 mph94%30.18 "HgN/A
10:00 PM54 °FPassing clouds.7 mph94%30.18 "HgN/A
9:30 PM54 °FPassing clouds.6 mph94%30.18 "Hg6 mi
9:00 PM54 °FPassing clouds.10 mph94%30.18 "Hg6 mi
8:30 PM54 °FPassing clouds.10 mph100%30.18 "Hg5 mi
8:00 PM55 °FPartly cloudy.14 mph88%30.18 "Hg3 mi
7:30 PM55 °FPartly cloudy.15 mph88%30.18 "Hg6 mi
7:00 PM55 °FPartly cloudy.15 mph94%30.18 "Hg6 mi
6:30 PM55 °FPartly cloudy.15 mph94%30.15 "Hg6 mi
6:00 PM55 °FPartly cloudy.9 mph88%30.15 "HgN/A
5:30 PM55 °FPartly sunny.10 mph88%30.15 "HgN/A
5:00 PM55 °FPartly sunny.14 mph88%30.15 "HgN/A
4:30 PM55 °FPartly sunny.14 mph94%30.15 "HgN/A
4:00 PM55 °FPartly sunny.13 mph94%30.15 "Hg6 mi
3:30 PM57 °FBroken clouds.15 mph94%30.15 "Hg6 mi
3:00 PM57 °FBroken clouds.14 mph94%30.15 "Hg6 mi
2:30 PM57 °FBroken clouds.9 mph100%30.15 "Hg5 mi
2:00 PM55 °FDrizzle. Broken clouds.9 mph100%30.15 "Hg2 mi
1:30 PM55 °FDrizzle. Partly sunny.12 mph100%30.15 "Hg4 mi
1:00 PM57 °FBroken clouds.7 mph94%30.18 "Hg6 mi
12:30 PM57 °FBroken clouds.5 mph94%30.18 "Hg6 mi
12:00 PM57 °FBroken clouds.3 mph100%30.18 "Hg5 mi
11:30 AM55 °FDrizzle. Broken clouds.5 mph100%30.18 "Hg4 mi
11:00 AM55 °FDrizzle. Broken clouds.5 mph100%30.18 "Hg4 mi
10:30 AM55 °FDrizzle. Broken clouds.5 mph100%30.21 "Hg4 mi
10:00 AM55 °FDrizzle. Broken clouds.2 mph100%30.21 "Hg4 mi
9:30 AM55 °FDrizzle. Broken clouds.6 mph100%30.21 "Hg1 mi
9:00 AM55 °FDrizzle. Broken clouds.2 mph100%30.18 "Hg2 mi
7:30 AM55 °FPartly cloudy.3 mph100%30.18 "Hg6 mi
7:00 AM55 °FPartly cloudy.2 mph100%30.18 "HgN/A
6:30 AM55 °FPartly cloudy.3 mph100%30.18 "Hg6 mi
6:00 AM55 °FPartly cloudy.1 mph100%30.18 "HgN/A
4:00 AM55 °FCool.3 mph100%30.21 "Hg4 mi
3:30 AM55 °FPartly cloudy.5 mph100%30.21 "HgN/A
2:30 AM55 °FPartly cloudy.3 mph100%30.24 "HgN/A
2:00 AM55 °FLight rain. Partly cloudy.3 mph100%30.24 "Hg6 mi
1:30 AM55 °FPartly cloudy.2 mph100%30.24 "Hg6 mi
1:00 AM55 °FPartly cloudy.5 mph100%30.24 "Hg6 mi
12:30 AM55 °FPartly cloudy.2 mph100%30.27 "Hg3 mi
12:00 AM55 °FPartly cloudy.3 mph100%30.27 "HgN/A
Weather by CustomWeather, © 2015

See weather overviewHow to use our weather pages